Wind_Speed
18 20 22 24 24 24 24 24 25 25 25 25 24 23 22 22 23 23 23 24 23 23 24 23 23 24 25 25 24 24 24 27
17 19 21 22 22 22 23 23 25 24 23 22 22 22 23 24 25 26 27 28 27 31 31 28 29 28 28 29 28 25 27 27
18 19 20 21 22 22 22 23 24 23 22 23 23 24 26 27 30 31 32 34 36 37 39 40 37 34 35 36 35 35 35 33
21 21 23 23 23 24 25 25 26 27 28 29 29 31 32 34 36 38 39 41 42 43 44 43 43 41 41 42 43 43 41 40
23 25 26 26 27 28 30 29 31 33 34 35 36 37 39 39 40 42 43 43 43 43 44 44 42 43 44 44 45 47 47 47
26 27 29 30 30 32 33 33 34 36 37 38 39 39 40 40 40 40 40 41 41 40 40 41 43 42 41 42 43 43 45 46
30 31 33 34 34 35 34 33 34 36 36 37 39 40 40 41 42 42 42 40 40 40 39 40 40 41 42 42 43 43 42 43
32 32 32 33 34 33 31 31 34 35 36 37 38 40 41 42 43 43 43 44 43 44 43 43 44 44 43 43 44 44 43 42
32 32 34 35 36 35 32 34 36 39 41 43 44 44 44 45 46 47 47 48 49 50 51 50 50 48 49 48 46 46 46 46
34 36 37 38 40 42 42 43 45 47 47 47 48 48 49 51 53 53 54 54 54 54 52 53 52 54 55 54 51 49 47 47
36 37 40 43 44 46 48 50 51 53 53 53 53 53 54 57 60 62 63 64 65 65 64 58 56 54 54 56 56 55 51 50
41 42 43 45 48 50 52 54 55 55 57 57 57 58 59 61 64 67 69 72 71 67 62 62 58 52 47 49 52 58 60 55
45 46 48 50 51 51 52 56 57 57 56 58 60 61 62 63 65 63 61 61 60 56 48 48 49 47 46 48 56 56 58 60
48 50 53 54 55 56 58 59 59 62 59 60 60 61 61 59 57 53 50 48 44 41 40 43 48 50 53 55 56 58 59 59
53 53 55 57 57 58 60 61 60 61 64 64 58 55 53 54 51 47 43 40 38 39 39 42 43 45 46 48 48 48 49 55
53 53 55 57 59 60 60 60 60 61 59 55 54 54 53 48 43 41 42 47 44 41 42 43 42 40 40 40 41 44 44 42
55 56 57 57 57 57 58 59 59 55 52 50 49 46 46 46 46 45 43 41 41 41 40 47 46 42 38 36 34 33 33 33
55 57 57 56 54 54 53 54 54 51 51 48 46 42 50 53 52 49 48 46 49 49 45 49 46 44 41 35 29 32 37 37
55 53 54 54 52 54 54 50 50 51 51 48 48 55 60 59 53 48 49 53 47 47 48 47 46 43 43 39 36 36 40 41
45 46 49 50 51 52 48 51 48 51 49 58 61 63 60 58 53 52 48 48 46 44 47 45 48 46 47 44 43 39 38 43
Wind_Direction
272 268 269 270 273 278 283 285 286 288 290 293 293 295 296 297 301 302 304 305 304 303 302 303 302 299 295 291 291 293 295 286
279 276 277 279 282 284 283 284 283 286 290 291 293 293 293 294 295 298 299 301 299 301 300 300 297 291 293 292 290 289 288 291
285 284 280 278 277 278 280 283 285 286 286 285 285 285 286 288 289 290 291 292 292 293 293 294 293 290 287 288 288 288 286 287
285 282 280 282 284 285 286 287 288 288 288 288 288 287 287 288 288 287 287 287 287 289 289 290 290 287 283 282 283 285 287 288
279 277 277 278 281 284 285 286 287 288 288 288 288 288 287 285 283 283 283 282 283 285 287 287 285 284 283 282 279 278 281 284
276 276 275 277 279 280 282 285 287 287 288 288 287 286 284 283 283 283 283 284 284 283 282 281 284 285 283 280 282 281 280 280
272 273 274 275 275 276 276 279 280 281 283 283 282 282 283 285 286 287 287 285 284 284 283 281 280 281 283 282 281 281 281 280
274 275 276 277 276 277 282 282 280 281 284 285 284 283 283 282 283 284 285 284 282 282 280 280 280 280 281 282 282 282 281 279
277 280 280 280 285 283 282 281 282 284 287 289 288 288 287 287 287 286 283 281 280 279 279 279 278 276 276 276 277 279 280 279
282 280 281 285 285 287 289 289 291 291 292 292 292 293 293 293 292 291 289 287 285 284 278 275 273 274 274 274 274 272 272 273
279 279 282 284 284 284 285 287 288 288 289 290 292 292 292 291 290 290 289 288 290 290 292 292 290 285 277 273 273 274 272 270
282 280 278 279 280 280 281 282 284 286 289 288 288 288 288 290 294 297 295 294 293 294 294 293 293 287 281 279 270 271 272 272
283 283 282 280 279 279 281 282 285 289 291 293 294 296 298 299 300 301 301 299 298 294 288 286 286 283 278 271 266 263 264 267
283 283 284 285 285 286 288 290 293 293 293 294 295 298 298 298 298 298 294 293 289 284 283 278 272 269 268 267 269 270 267 268
283 285 285 286 286 288 290 290 290 292 295 295 294 294 295 297 299 296 294 289 282 286 289 287 284 281 279 278 275 276 275 273
284 283 283 284 286 286 288 288 289 291 293 292 293 295 294 296 293 294 293 293 280 283 284 289 285 285 284 283 281 278 275 275
283 281 281 282 283 284 285 288 290 291 291 290 292 295 297 297 293 292 290 287 286 287 285 286 286 283 282 282 280 278 279 278
280 281 281 281 281 285 284 285 288 290 290 291 291 293 299 300 290 292 287 286 287 288 280 283 285 284 284 279 281 290 285 286
278 282 282 284 283 282 284 286 287 286 286 287 290 294 295 299 297 287 284 286 287 285 286 284 286 284 284 278 279 287 290 285
283 283 282 278 277 276 279 279 280 283 289 292 290 290 290 292 292 290 287 286 282 282 282 281 280 282 284 279 281 284 283 289
Height
5850 5849 5850 5850 5849 5849 5848 5848 5848 5848 5848 5847 5846 5845 5845 5844 5843 5842 5841 5839 5837 5835 5835 5835 5834 5834 5834 5834 5834 5834 5834 5834
5846 5846 5845 5845 5845 5844 5844 5843 5843 5843 5843 5842 5842 5841 5841 5840 5839 5838 5837 5836 5834 5833 5831 5831 5830 5829 5827 5827 5827 5828 5828 5827
5843 5842 5841 5841 5841 5839 5839 5838 5839 5839 5838 5837 5836 5835 5835 5835 5834 5833 5832 5831 5829 5828 5826 5824 5824 5824 5822 5821 5819 5821 5821 5821
5839 5838 5838 5837 5836 5835 5834 5834 5833 5833 5833 5832 5830 5829 5828 5828 5827 5826 5825 5823 5822 5821 5819 5818 5816 5816 5815 5815 5813 5813 5812 5812
5834 5833 5832 5831 5831 5829 5828 5828 5827 5826 5826 5825 5824 5823 5822 5821 5820 5819 5817 5815 5814 5812 5810 5809 5808 5807 5807 5806 5806 5805 5804 5802
5827 5827 5826 5825 5824 5823 5822 5822 5821 5820 5820 5819 5817 5816 5814 5813 5811 5810 5809 5808 5806 5804 5802 5800 5799 5798 5798 5797 5796 5796 5796 5795
5822 5821 5820 5819 5819 5818 5818 5817 5816 5814 5813 5812 5810 5808 5806 5805 5804 5802 5801 5798 5798 5796 5794 5792 5790 5789 5788 5788 5787 5787 5787 5786
5816 5815 5814 5813 5813 5813 5813 5812 5810 5808 5806 5804 5803 5802 5800 5798 5796 5795 5792 5791 5789 5787 5785 5783 5782 5780 5778 5778 5777 5776 5776 5776
5808 5806 5805 5804 5804 5805 5804 5803 5801 5800 5798 5796 5794 5792 5790 5789 5787 5785 5784 5782 5780 5778 5777 5775 5773 5770 5768 5766 5765 5765 5765 5765
5800 5798 5797 5796 5795 5794 5792 5791 5789 5788 5786 5785 5783 5781 5779 5777 5774 5772 5770 5768 5767 5766 5765 5763 5762 5761 5758 5756 5753 5752 5752 5752
5793 5792 5790 5788 5787 5785 5783 5781 5780 5778 5776 5774 5772 5770 5767 5765 5762 5760 5757 5755 5752 5750 5749 5749 5748 5748 5748 5744 5742 5740 5738 5738
5785 5783 5782 5780 5778 5776 5774 5771 5770 5768 5766 5764 5761 5758 5756 5753 5750 5747 5745 5742 5739 5736 5734 5734 5733 5733 5732 5732 5729 5728 5726 5726
5777 5774 5773 5771 5768 5767 5765 5762 5759 5756 5752 5749 5747 5743 5740 5738 5734 5732 5729 5727 5725 5723 5719 5717 5717 5718 5717 5716 5712 5711 5710 5710
5767 5766 5763 5760 5757 5753 5750 5748 5746 5743 5739 5736 5734 5732 5729 5725 5721 5718 5715 5712 5710 5708 5707 5704 5700 5701 5700 5698 5698 5694 5695 5694
5755 5752 5750 5747 5743 5740 5738 5735 5732 5729 5728 5725 5721 5717 5713 5710 5708 5705 5703 5700 5698 5697 5695 5692 5690 5687 5686 5683 5683 5682 5679 5680
5742 5739 5736 5733 5730 5728 5725 5722 5719 5716 5714 5711 5708 5704 5700 5698 5696 5694 5692 5689 5687 5685 5683 5681 5678 5675 5674 5672 5670 5670 5670 5668
5726 5724 5721 5719 5716 5714 5712 5709 5707 5704 5700 5697 5694 5692 5689 5687 5685 5682 5679 5676 5675 5673 5671 5668 5666 5663 5661 5659 5659 5659 5657 5657
5711 5709 5708 5706 5704 5702 5699 5697 5694 5691 5687 5684 5683 5680 5677 5674 5672 5670 5667 5664 5663 5661 5658 5655 5652 5651 5649 5647 5646 5645 5645 5644
5697 5696 5695 5694 5692 5689 5687 5685 5682 5679 5676 5673 5671 5669 5666 5661 5658 5656 5654 5651 5648 5646 5644 5641 5638 5636 5636 5635 5634 5631 5631 5630
5685 5685 5683 5681 5679 5677 5676 5673 5669 5667 5665 5662 5658 5655 5651 5649 5645 5641 5640 5637 5633 5631 5630 5627 5626 5623 5623 5621 5620 5618 5616 5615